Year,Month,Day,Hour,Minute,Value (Times are PST for barometer in hPa)
2020,11,17,00,00,995.27
2020,11,17,00,01,995.19
2020,11,17,00,02,995.36
2020,11,17,00,03,995.19
2020,11,17,00,04,995.26
2020,11,17,00,05,995.40
2020,11,17,00,06,995.16
2020,11,17,00,07,995.16
2020,11,17,00,08,995.23
2020,11,17,00,09,995.09
2020,11,17,00,10,995.12
2020,11,17,00,11,995.12
2020,11,17,00,12,995.19
2020,11,17,00,13,995.23
2020,11,17,00,14,995.19
2020,11,17,00,15,995.09
2020,11,17,00,16,995.09
2020,11,17,00,17,995.09
2020,11,17,00,18,995.06
2020,11,17,00,19,995.06
2020,11,17,00,20,995.09
2020,11,17,00,21,995.02
2020,11,17,00,22,995.09
2020,11,17,00,23,994.99
2020,11,17,00,24,995.02
2020,11,17,00,25,994.92
2020,11,17,00,26,995.02
2020,11,17,00,27,995.09
2020,11,17,00,28,994.99
2020,11,17,00,29,994.92
2020,11,17,00,30,994.92
2020,11,17,00,31,994.96
2020,11,17,00,32,994.92
2020,11,17,00,33,994.89
2020,11,17,00,34,994.92
2020,11,17,00,35,994.89
2020,11,17,00,36,994.85
2020,11,17,00,37,994.85
2020,11,17,00,38,995.02
2020,11,17,00,39,994.96
2020,11,17,00,40,994.99
2020,11,17,00,41,994.89
2020,11,17,00,42,994.99
2020,11,17,00,43,995.09
2020,11,17,00,44,995.02
2020,11,17,00,45,995.06
2020,11,17,00,46,994.99
2020,11,17,00,47,994.92
2020,11,17,00,48,994.99
2020,11,17,00,49,995.02
2020,11,17,00,50,994.82
2020,11,17,00,51,994.82
2020,11,17,00,52,994.75
2020,11,17,00,53,994.72
2020,11,17,00,54,994.65
2020,11,17,00,55,994.65
2020,11,17,00,56,994.65
2020,11,17,00,57,994.55
2020,11,17,00,58,994.52
2020,11,17,00,59,994.48
2020,11,17,01,00,994.41
2020,11,17,01,01,994.31
2020,11,17,01,02,994.28
2020,11,17,01,03,994.31
2020,11,17,01,04,994.35
2020,11,17,01,05,994.38
2020,11,17,01,06,994.21
2020,11,17,01,07,994.28
2020,11,17,01,08,994.24
2020,11,17,01,09,994.24
2020,11,17,01,10,994.24
2020,11,17,01,11,994.18
2020,11,17,01,12,994.24
2020,11,17,01,13,994.21
2020,11,17,01,14,994.14
2020,11,17,01,15,994.14
2020,11,17,01,16,994.14
2020,11,17,01,17,994.21
2020,11,17,01,18,994.28
2020,11,17,01,19,994.11
2020,11,17,01,20,994.01
2020,11,17,01,21,994.11
2020,11,17,01,22,994.12
2020,11,17,01,23,994.24
2020,11,17,01,24,994.11
2020,11,17,01,25,994.01
2020,11,17,01,26,994.01
2020,11,17,01,27,993.97
2020,11,17,01,28,993.94
2020,11,17,01,29,993.87
2020,11,17,01,30,993.87
2020,11,17,01,31,993.84
2020,11,17,01,32,993.86
2020,11,17,01,33,993.80
2020,11,17,01,34,993.74
2020,11,17,01,35,993.67
2020,11,17,01,36,993.70
2020,11,17,01,37,993.67
2020,11,17,01,38,993.60
2020,11,17,01,39,993.67
2020,11,17,01,40,993.62
2020,11,17,01,41,993.53
2020,11,17,01,42,993.47
2020,11,17,01,43,993.57
2020,11,17,01,44,993.50
2020,11,17,01,45,993.40
2020,11,17,01,46,993.33
2020,11,17,01,47,993.40
2020,11,17,01,48,993.40
2020,11,17,01,49,993.47
2020,11,17,01,50,993.53
2020,11,17,01,51,993.50
2020,11,17,01,52,993.43
2020,11,17,01,53,993.33
2020,11,17,01,54,993.40
2020,11,17,01,55,993.36
2020,11,17,01,56,993.23
2020,11,17,01,57,993.13
2020,11,17,01,58,993.15
2020,11,17,01,59,992.96
2020,11,17,02,00,992.89
2020,11,17,02,01,992.79
2020,11,17,02,02,992.69
2020,11,17,02,03,992.55
2020,11,17,02,04,992.62
2020,11,17,02,05,992.55
2020,11,17,02,06,992.48
2020,11,17,02,07,992.48
2020,11,17,02,08,992.38
2020,11,17,02,09,992.38
2020,11,17,02,10,992.38
2020,11,17,02,11,992.42
2020,11,17,02,12,992.38
2020,11,17,02,13,992.28
2020,11,17,02,14,992.21
2020,11,17,02,15,992.11
2020,11,17,02,16,992.14
2020,11,17,02,17,992.14
2020,11,17,02,18,992.14
2020,11,17,02,19,992.14
2020,11,17,02,20,992.11
2020,11,17,02,21,992.08
2020,11,17,02,22,992.04
2020,11,17,02,23,991.91
2020,11,17,02,24,991.94
2020,11,17,02,25,991.94
2020,11,17,02,26,991.91
2020,11,17,02,27,991.87
2020,11,17,02,28,991.91
2020,11,17,02,29,991.87
2020,11,17,02,30,991.84
2020,11,17,02,31,991.84
2020,11,17,02,32,991.84
2020,11,17,02,33,991.74
2020,11,17,02,34,991.81
2020,11,17,02,35,991.67
2020,11,17,02,36,991.67
2020,11,17,02,37,991.77
2020,11,17,02,38,991.74
2020,11,17,02,39,991.84
2020,11,17,02,40,991.77
2020,11,17,02,41,991.67
2020,11,17,02,42,991.53
2020,11,17,02,43,991.57
2020,11,17,02,44,991.50
2020,11,17,02,45,991.67
2020,11,17,02,46,991.50
2020,11,17,02,47,991.43
2020,11,17,02,48,991.37
2020,11,17,02,49,991.43
2020,11,17,02,50,991.47
2020,11,17,02,51,991.38
2020,11,17,02,52,991.27
2020,11,17,02,53,991.26
2020,11,17,02,54,991.43
2020,11,17,02,55,991.37
2020,11,17,02,56,991.33
2020,11,17,02,57,991.30
2020,11,17,02,58,991.16
2020,11,17,02,59,991.20
2020,11,17,03,00,991.20
2020,11,17,03,01,991.20
2020,11,17,03,02,991.23
2020,11,17,03,03,991.23
2020,11,17,03,04,991.13
2020,11,17,03,05,991.13
2020,11,17,03,06,991.13
2020,11,17,03,07,991.05
2020,11,17,03,08,990.93
2020,11,17,03,09,990.96
2020,11,17,03,10,990.96
2020,11,17,03,11,990.80
2020,11,17,03,12,990.76
2020,11,17,03,13,990.79
2020,11,17,03,14,990.86
2020,11,17,03,15,990.89
2020,11,17,03,16,990.99
2020,11,17,03,17,990.93
2020,11,17,03,18,990.86
2020,11,17,03,19,990.82
2020,11,17,03,20,990.76
2020,11,17,03,21,990.76
2020,11,17,03,22,990.82
2020,11,17,03,23,990.79
2020,11,17,03,24,990.72
2020,11,17,03,25,990.79
2020,11,17,03,26,990.69
2020,11,17,03,27,990.59
2020,11,17,03,28,990.55
2020,11,17,03,29,990.49
2020,11,17,03,30,990.49
2020,11,17,03,31,990.55
2020,11,17,03,32,990.59
2020,11,17,03,33,990.59
2020,11,17,03,34,990.45
2020,11,17,03,35,990.42
2020,11,17,03,36,990.45
2020,11,17,03,37,990.38
2020,11,17,03,38,990.28
2020,11,17,03,39,990.21
2020,11,17,03,40,990.28
2020,11,17,03,41,990.32
2020,11,17,03,42,990.25
2020,11,17,03,43,990.21
2020,11,17,03,44,990.18
2020,11,17,03,45,990.11
2020,11,17,03,46,990.18
2020,11,17,03,47,990.18
2020,11,17,03,48,990.15
2020,11,17,03,49,990.25
2020,11,17,03,50,990.11
2020,11,17,03,51,990.15
2020,11,17,03,52,990.08
2020,11,17,03,53,990.01
2020,11,17,03,54,989.98
2020,11,17,03,55,989.91
2020,11,17,03,56,989.84
2020,11,17,03,57,989.84
2020,11,17,03,58,989.91
2020,11,17,03,59,989.91
2020,11,17,04,00,989.84
2020,11,17,04,01,989.77
2020,11,17,04,02,989.74
2020,11,17,04,03,989.77
2020,11,17,04,04,989.74
2020,11,17,04,05,989.74
2020,11,17,04,06,989.60
2020,11,17,04,07,989.57
2020,11,17,04,08,989.67
2020,11,17,04,09,989.67
2020,11,17,04,10,989.67
2020,11,17,04,11,989.60
2020,11,17,04,12,989.57
2020,11,17,04,13,989.67
2020,11,17,04,14,989.64
2020,11,17,04,15,989.64
2020,11,17,04,16,989.67
2020,11,17,04,17,989.54
2020,11,17,04,18,989.57
2020,11,17,04,19,989.60
2020,11,17,04,20,989.50
2020,11,17,04,21,989.44
2020,11,17,04,22,989.40
2020,11,17,04,23,989.40
2020,11,17,04,24,989.27
2020,11,17,04,25,989.33
2020,11,17,04,26,989.40
2020,11,17,04,27,989.37
2020,11,17,04,28,989.37
2020,11,17,04,29,989.23
2020,11,17,04,30,989.20
2020,11,17,04,31,989.23
2020,11,17,04,32,989.27
2020,11,17,04,33,989.20
2020,11,17,04,34,989.23
2020,11,17,04,35,989.20
2020,11,17,04,36,989.16
2020,11,17,04,37,989.10
2020,11,17,04,38,989.13
2020,11,17,04,39,989.23
2020,11,17,04,40,989.30
2020,11,17,04,41,989.30
2020,11,17,04,42,989.27
2020,11,17,04,43,989.20
2020,11,17,04,44,989.23
2020,11,17,04,45,989.20
2020,11,17,04,46,989.23
2020,11,17,04,47,989.30
2020,11,17,04,48,989.33
2020,11,17,04,49,989.33
2020,11,17,04,50,989.27
2020,11,17,04,51,989.23
2020,11,17,04,52,989.16
2020,11,17,04,53,989.06
2020,11,17,04,54,989.10
2020,11,17,04,55,989.13
2020,11,17,04,56,989.00
2020,11,17,04,57,989.00
2020,11,17,04,58,989.00
2020,11,17,04,59,988.83
2020,11,17,05,00,988.83
2020,11,17,05,01,988.83
2020,11,17,05,02,988.76
2020,11,17,05,03,988.69
2020,11,17,05,04,988.61
2020,11,17,05,05,988.52
2020,11,17,05,06,988.45
2020,11,17,05,07,988.49
2020,11,17,05,08,988.45
2020,11,17,05,09,988.42
2020,11,17,05,10,988.28
2020,11,17,05,11,988.32
2020,11,17,05,12,988.28
2020,11,17,05,13,988.12
2020,11,17,05,14,988.01
2020,11,17,05,15,987.91
2020,11,17,05,16,987.98
2020,11,17,05,17,987.95
2020,11,17,05,18,988.01
2020,11,17,05,19,987.84
2020,11,17,05,20,987.71
2020,11,17,05,21,987.67
2020,11,17,05,22,987.61
2020,11,17,05,23,987.64
2020,11,17,05,24,987.47
2020,11,17,05,25,987.44
2020,11,17,05,26,987.40
2020,11,17,05,27,987.40
2020,11,17,05,28,987.44
2020,11,17,05,29,987.44
2020,11,17,05,30,987.44
2020,11,17,05,31,987.44
2020,11,17,05,32,987.27
2020,11,17,05,33,987.27
2020,11,17,05,34,987.23
2020,11,17,05,35,987.27
2020,11,17,05,36,987.20
2020,11,17,05,37,987.17
2020,11,17,05,38,987.03
2020,11,17,05,39,986.96
2020,11,17,05,40,986.93
2020,11,17,05,41,986.80
2020,11,17,05,42,986.76
2020,11,17,05,43,986.76
2020,11,17,05,44,986.66
2020,11,17,05,45,986.52
2020,11,17,05,46,986.59
2020,11,17,05,47,986.62
2020,11,17,05,48,986.62
2020,11,17,05,49,986.52
2020,11,17,05,50,986.49
2020,11,17,05,51,986.52
2020,11,17,05,52,986.46
2020,11,17,05,53,986.25
2020,11,17,05,54,986.18
2020,11,17,05,55,986.25
2020,11,17,05,56,986.22
2020,11,17,05,57,986.18
2020,11,17,05,58,986.22
2020,11,17,05,59,986.22
2020,11,17,06,00,986.18
2020,11,17,06,01,986.22
2020,11,17,06,02,986.05
2020,11,17,06,03,985.91
2020,11,17,06,04,985.74
2020,11,17,06,05,985.71
2020,11,17,06,06,985.61
2020,11,17,06,07,985.71
2020,11,17,06,08,985.71
2020,11,17,06,09,985.81
2020,11,17,06,10,985.81
2020,11,17,06,11,985.68
2020,11,17,06,12,985.68
2020,11,17,06,13,985.74
2020,11,17,06,14,985.68
2020,11,17,06,15,985.71
2020,11,17,06,16,985.64
2020,11,17,06,17,985.47
2020,11,17,06,18,985.41
2020,11,17,06,19,985.34
2020,11,17,06,20,985.10
2020,11,17,06,21,985.07
2020,11,17,06,22,985.03
2020,11,17,06,23,984.80
2020,11,17,06,24,984.93
2020,11,17,06,25,984.76
2020,11,17,06,26,984.56
2020,11,17,06,27,984.49
2020,11,17,06,28,984.49
2020,11,17,06,29,984.25
2020,11,17,06,30,984.03
2020,11,17,06,31,983.98
2020,11,17,06,32,983.75
2020,11,17,06,33,983.49
2020,11,17,06,34,983.64
2020,11,17,06,35,983.44
2020,11,17,06,36,983.41
2020,11,17,06,37,983.34
2020,11,17,06,38,983.24
2020,11,17,06,39,983.20
2020,11,17,06,40,983.07
2020,11,17,06,41,983.04
2020,11,17,06,42,982.90
2020,11,17,06,43,982.87
2020,11,17,06,44,982.97
2020,11,17,06,45,982.91
2020,11,17,06,46,983.00
2020,11,17,06,47,982.87
2020,11,17,06,48,982.93
2020,11,17,06,49,982.87
2020,11,17,06,50,982.97
2020,11,17,06,51,982.90
2020,11,17,06,52,982.83
2020,11,17,06,53,982.76
2020,11,17,06,54,982.87
2020,11,17,06,55,983.13
2020,11,17,06,56,983.14
2020,11,17,06,57,983.10
2020,11,17,06,58,983.34
2020,11,17,06,59,983.54
2020,11,17,07,00,983.34
2020,11,17,07,01,983.47
2020,11,17,07,02,983.48
2020,11,17,07,03,983.48
2020,11,17,07,04,983.70
2020,11,17,07,05,983.41
2020,11,17,07,06,983.81
2020,11,17,07,07,983.81
2020,11,17,07,08,983.78
2020,11,17,07,09,983.71
2020,11,17,07,10,983.78
2020,11,17,07,11,983.68
2020,11,17,07,12,983.61
2020,11,17,07,13,983.71
2020,11,17,07,14,983.78
2020,11,17,07,15,983.78
2020,11,17,07,16,983.71
2020,11,17,07,17,983.71
2020,11,17,07,18,983.64
2020,11,17,07,19,983.54
2020,11,17,07,20,983.48
2020,11,17,07,21,983.44
2020,11,17,07,22,983.31
2020,11,17,07,23,983.24
2020,11,17,07,24,983.27
2020,11,17,07,25,983.27
2020,11,17,07,26,983.17
2020,11,17,07,27,983.07
2020,11,17,07,28,983.07
2020,11,17,07,29,983.00
2020,11,17,07,30,983.00
2020,11,17,07,31,982.93
2020,11,17,07,32,982.83
2020,11,17,07,33,982.70
2020,11,17,07,34,982.63
2020,11,17,07,35,982.53
2020,11,17,07,36,982.66
2020,11,17,07,37,982.70
2020,11,17,07,38,982.56
2020,11,17,07,39,982.53
2020,11,17,07,40,982.43
2020,11,17,07,41,982.46
2020,11,17,07,42,982.53
2020,11,17,07,43,982.53
2020,11,17,07,44,982.56
2020,11,17,07,45,982.53
2020,11,17,07,46,982.56
2020,11,17,07,47,982.59
2020,11,17,07,48,982.63
2020,11,17,07,49,982.63
2020,11,17,07,50,982.73
2020,11,17,07,51,982.73
2020,11,17,07,52,982.76
2020,11,17,07,53,982.87
2020,11,17,07,54,982.83
2020,11,17,07,55,982.87
2020,11,17,07,56,982.90
2020,11,17,07,57,982.87
2020,11,17,07,58,982.90
2020,11,17,07,59,982.76
2020,11,17,08,00,982.73
2020,11,17,08,01,982.86
2020,11,17,08,02,982.83
2020,11,17,08,03,982.76
2020,11,17,08,04,982.76
2020,11,17,08,05,982.66
2020,11,17,08,06,982.70
2020,11,17,08,07,982.66
2020,11,17,08,08,982.70
2020,11,17,08,09,982.70
2020,11,17,08,10,982.73
2020,11,17,08,11,982.59
2020,11,17,08,12,982.63
2020,11,17,08,13,982.66
2020,11,17,08,14,982.63
2020,11,17,08,15,982.63
2020,11,17,08,16,982.63
2020,11,17,08,17,982.66
2020,11,17,08,18,982.63
2020,11,17,08,19,982.66
2020,11,17,08,20,982.73
2020,11,17,08,21,982.73
2020,11,17,08,22,982.73
2020,11,17,08,23,982.66
2020,11,17,08,24,982.70
2020,11,17,08,25,982.70
2020,11,17,08,26,982.66
2020,11,17,08,27,982.66
2020,11,17,08,28,982.66
2020,11,17,08,29,982.73
2020,11,17,08,30,982.66
2020,11,17,08,31,982.63
2020,11,17,08,32,982.63
2020,11,17,08,33,982.53
2020,11,17,08,34,982.46
2020,11,17,08,35,982.43
2020,11,17,08,36,982.32
2020,11,17,08,37,982.32
2020,11,17,08,38,982.32
2020,11,17,08,39,982.22
2020,11,17,08,40,982.29
2020,11,17,08,41,982.15
2020,11,17,08,42,982.15
2020,11,17,08,43,982.15
2020,11,17,08,44,982.22
2020,11,17,08,45,982.22
2020,11,17,08,46,982.19
2020,11,17,08,47,982.19
2020,11,17,08,48,982.22
2020,11,17,08,49,982.19
2020,11,17,08,50,982.19
2020,11,17,08,51,982.15
2020,11,17,08,52,982.09
2020,11,17,08,53,981.99
2020,11,17,08,54,981.99
2020,11,17,08,55,981.95
2020,11,17,08,56,981.95
2020,11,17,08,57,981.92
2020,11,17,08,58,981.92
2020,11,17,08,59,982.02
2020,11,17,09,00,981.92
2020,11,17,09,01,981.92
2020,11,17,09,02,981.82
2020,11,17,09,03,981.82
2020,11,17,09,04,981.78
2020,11,17,09,05,981.82
2020,11,17,09,06,981.65
2020,11,17,09,07,981.71
2020,11,17,09,08,981.71
2020,11,17,09,09,981.75
2020,11,17,09,10,981.75
2020,11,17,09,11,981.88
2020,11,17,09,12,981.82
2020,11,17,09,13,981.78
2020,11,17,09,14,981.82
2020,11,17,09,15,981.82
2020,11,17,09,16,981.61
2020,11,17,09,17,981.51
2020,11,17,09,18,981.55
2020,11,17,09,19,981.61
2020,11,17,09,20,981.65
2020,11,17,09,21,981.61
2020,11,17,09,22,981.65
2020,11,17,09,23,981.75
2020,11,17,09,24,981.71
2020,11,17,09,25,981.78
2020,11,17,09,26,981.92
2020,11,17,09,27,981.99
2020,11,17,09,28,981.99
2020,11,17,09,29,981.95
2020,11,17,09,30,982.09
2020,11,17,09,31,982.02
2020,11,17,09,32,981.99
2020,11,17,09,33,981.82
2020,11,17,09,34,981.75
2020,11,17,09,35,981.75
2020,11,17,09,36,981.78
2020,11,17,09,37,981.65
2020,11,17,09,38,981.75
2020,11,17,09,39,981.68
2020,11,17,09,40,981.65
2020,11,17,09,41,981.68
2020,11,17,09,42,981.82
2020,11,17,09,43,981.78
2020,11,17,09,44,981.85
2020,11,17,09,45,981.99
2020,11,17,09,46,982.02
2020,11,17,09,47,982.02
2020,11,17,09,48,982.12
2020,11,17,09,49,982.12
2020,11,17,09,50,982.15
2020,11,17,09,51,982.09
2020,11,17,09,52,982.12
2020,11,17,09,53,982.09
2020,11,17,09,54,982.12
2020,11,17,09,55,982.12
2020,11,17,09,56,982.03
2020,11,17,09,57,981.88
2020,11,17,09,58,981.78
2020,11,17,09,59,981.99
2020,11,17,10,00,981.99
2020,11,17,10,01,982.05
2020,11,17,10,02,982.09
2020,11,17,10,03,982.05
2020,11,17,10,04,982.05
2020,11,17,10,05,982.02
2020,11,17,10,06,981.99
2020,11,17,10,07,981.85
2020,11,17,10,08,981.88
2020,11,17,10,09,981.95
2020,11,17,10,10,981.95
2020,11,17,10,11,981.88
2020,11,17,10,12,981.88
2020,11,17,10,13,981.78
2020,11,17,10,14,981.88
2020,11,17,10,15,981.82
2020,11,17,10,16,981.85
2020,11,17,10,17,981.78
2020,11,17,10,18,981.88
2020,11,17,10,19,981.95
2020,11,17,10,20,981.99
2020,11,17,10,21,981.92
2020,11,17,10,22,981.95
2020,11,17,10,23,982.02
2020,11,17,10,24,981.99
2020,11,17,10,25,982.15
2020,11,17,10,26,982.12
2020,11,17,10,27,982.09
2020,11,17,10,28,982.15
2020,11,17,10,29,982.12
2020,11,17,10,30,982.05
2020,11,17,10,31,982.12
2020,11,17,10,32,982.15
2020,11,17,10,33,982.02
2020,11,17,10,34,982.05
2020,11,17,10,35,982.15
2020,11,17,10,36,982.19
2020,11,17,10,37,982.19
2020,11,17,10,38,982.19
2020,11,17,10,39,982.22
2020,11,17,10,40,982.32
2020,11,17,10,41,982.36
2020,11,17,10,42,982.36
2020,11,17,10,43,982.32
2020,11,17,10,44,982.45
2020,11,17,10,45,982.53
2020,11,17,10,46,982.59
2020,11,17,10,47,982.63
2020,11,17,10,48,982.59
2020,11,17,10,49,982.70
2020,11,17,10,50,982.76
2020,11,17,10,51,982.70
2020,11,17,10,52,982.63
2020,11,17,10,53,982.80
2020,11,17,10,54,982.83
2020,11,17,10,55,982.97
2020,11,17,10,56,982.93
2020,11,17,10,57,982.73
2020,11,17,10,58,982.66
2020,11,17,10,59,982.87
2020,11,17,11,00,982.90
2020,11,17,11,01,982.67
2020,11,17,11,02,982.70
2020,11,17,11,03,982.73
2020,11,17,11,04,982.66
2020,11,17,11,05,982.70
2020,11,17,11,06,982.90
2020,11,17,11,07,982.83
2020,11,17,11,08,982.83
2020,11,17,11,09,982.90
2020,11,17,11,10,982.90
2020,11,17,11,11,982.93
2020,11,17,11,12,983.00
2020,11,17,11,13,982.90
2020,11,17,11,14,982.97
2020,11,17,11,15,983.04
2020,11,17,11,16,983.04
2020,11,17,11,17,983.04
2020,11,17,11,18,983.10
2020,11,17,11,19,983.04
2020,11,17,11,20,983.07
2020,11,17,11,21,983.17
2020,11,17,11,22,983.24
2020,11,17,11,23,983.24
2020,11,17,11,24,983.27
2020,11,17,11,25,983.24
2020,11,17,11,26,983.34
2020,11,17,11,27,983.43
2020,11,17,11,28,983.51
2020,11,17,11,29,983.51
2020,11,17,11,30,983.58
2020,11,17,11,31,983.61
2020,11,17,11,32,983.68
2020,11,17,11,33,983.81
2020,11,17,11,34,983.81
2020,11,17,11,35,983.85
2020,11,17,11,36,983.88
2020,11,17,11,37,984.01
2020,11,17,11,38,984.02
2020,11,17,11,39,984.05
2020,11,17,11,40,984.08
2020,11,17,11,41,984.12
2020,11,17,11,42,984.24
2020,11,17,11,43,984.25
2020,11,17,11,44,984.25
2020,11,17,11,45,984.25
2020,11,17,11,46,984.29
2020,11,17,11,47,984.39
2020,11,17,11,48,984.36
2020,11,17,11,49,984.39
2020,11,17,11,50,984.42
2020,11,17,11,51,984.42
2020,11,17,11,52,984.33
2020,11,17,11,53,984.22
2020,11,17,11,54,984.19
2020,11,17,11,55,984.22
2020,11,17,11,56,984.29
2020,11,17,11,57,984.39
2020,11,17,11,58,984.48
2020,11,17,11,59,984.42
2020,11,17,12,00,984.53
2020,11,17,12,01,984.56
2020,11,17,12,02,984.59
2020,11,17,12,03,984.63
2020,11,17,12,04,984.69
2020,11,17,12,05,984.66
2020,11,17,12,06,984.66
2020,11,17,12,07,984.69
2020,11,17,12,08,984.66
2020,11,17,12,09,984.69
2020,11,17,12,10,984.76
2020,11,17,12,11,984.69
2020,11,17,12,12,984.73
2020,11,17,12,13,984.66
2020,11,17,12,14,984.69
2020,11,17,12,15,984.80
2020,11,17,12,16,984.80
2020,11,17,12,17,984.76
2020,11,17,12,18,984.80
2020,11,17,12,19,984.80
2020,11,17,12,20,984.90
2020,11,17,12,21,984.86
2020,11,17,12,22,984.90
2020,11,17,12,23,984.90
2020,11,17,12,24,984.93
2020,11,17,12,25,985.03
2020,11,17,12,26,985.07
2020,11,17,12,27,985.13
2020,11,17,12,28,985.20
2020,11,17,12,29,985.24
2020,11,17,12,30,985.30
2020,11,17,12,31,985.10
2020,11,17,12,32,985.30
2020,11,17,12,33,985.30
2020,11,17,12,34,985.20
2020,11,17,12,35,985.20
2020,11,17,12,36,985.36
2020,11,17,12,37,985.37
2020,11,17,12,38,985.37
2020,11,17,12,39,985.41
2020,11,17,12,40,985.47
2020,11,17,12,41,985.51
2020,11,17,12,42,985.57
2020,11,17,12,43,985.61
2020,11,17,12,44,985.71
2020,11,17,12,45,985.71
2020,11,17,12,46,985.71
2020,11,17,12,47,985.74
2020,11,17,12,48,985.81
2020,11,17,12,49,985.85
2020,11,17,12,50,985.78
2020,11,17,12,51,985.81
2020,11,17,12,52,985.81
2020,11,17,12,53,985.91
2020,11,17,12,54,985.98
2020,11,17,12,55,985.95
2020,11,17,12,56,985.95
2020,11,17,12,57,985.98
2020,11,17,12,58,986.08
2020,11,17,12,59,986.05
2020,11,17,13,00,986.08
2020,11,17,13,01,986.15
2020,11,17,13,02,986.15
2020,11,17,13,03,986.18
2020,11,17,13,04,986.18
2020,11,17,13,05,986.25
2020,11,17,13,06,986.32
2020,11,17,13,07,986.22
2020,11,17,13,08,986.32
2020,11,17,13,09,986.32
2020,11,17,13,10,986.35
2020,11,17,13,11,986.35
2020,11,17,13,12,986.42
2020,11,17,13,13,986.39
2020,11,17,13,14,986.39
2020,11,17,13,15,986.35
2020,11,17,13,16,986.39
2020,11,17,13,17,986.35
2020,11,17,13,18,986.39
2020,11,17,13,19,986.39
2020,11,17,13,20,986.39
2020,11,17,13,21,986.39
2020,11,17,13,22,986.46
2020,11,17,13,23,986.42
2020,11,17,13,24,986.52
2020,11,17,13,25,986.52
2020,11,17,13,26,986.59
2020,11,17,13,27,986.66
2020,11,17,13,28,986.73
2020,11,17,13,29,986.76
2020,11,17,13,30,986.73
2020,11,17,13,31,986.79
2020,11,17,13,32,986.76
2020,11,17,13,33,986.69
2020,11,17,13,34,986.76
2020,11,17,13,35,986.69
2020,11,17,13,36,986.66
2020,11,17,13,37,986.66
2020,11,17,13,38,986.62
2020,11,17,13,39,986.66
2020,11,17,13,40,986.69
2020,11,17,13,41,986.66
2020,11,17,13,42,986.73
2020,11,17,13,43,986.76
2020,11,17,13,44,986.83
2020,11,17,13,45,986.90
2020,11,17,13,46,986.99
2020,11,17,13,47,987.03
2020,11,17,13,48,987.10
2020,11,17,13,49,987.13
2020,11,17,13,50,987.17
2020,11,17,13,51,987.17
2020,11,17,13,52,987.20
2020,11,17,13,53,987.23
2020,11,17,13,54,987.23
2020,11,17,13,55,987.27
2020,11,17,13,56,987.34
2020,11,17,13,57,987.34
2020,11,17,13,58,987.34
2020,11,17,13,59,987.37
2020,11,17,14,00,987.34
2020,11,17,14,01,987.40
2020,11,17,14,02,987.47
2020,11,17,14,03,987.44
2020,11,17,14,04,987.51
2020,11,17,14,05,987.47
2020,11,17,14,06,987.47
2020,11,17,14,07,987.44
2020,11,17,14,08,987.47
2020,11,17,14,09,987.44
2020,11,17,14,10,987.47
2020,11,17,14,11,987.47
2020,11,17,14,12,987.54
2020,11,17,14,13,987.61
2020,11,17,14,14,987.54
2020,11,17,14,15,987.57
2020,11,17,14,16,987.57
2020,11,17,14,17,987.51
2020,11,17,14,18,987.47
2020,11,17,14,19,987.44
2020,11,17,14,20,987.47
2020,11,17,14,21,987.54
2020,11,17,14,22,987.47
2020,11,17,14,23,987.47
2020,11,17,14,24,987.47
2020,11,17,14,25,987.51
2020,11,17,14,26,987.54
2020,11,17,14,27,987.54
2020,11,17,14,28,987.61
2020,11,17,14,29,987.64
2020,11,17,14,30,987.67
2020,11,17,14,31,987.67
2020,11,17,14,32,987.67
2020,11,17,14,33,987.71
2020,11,17,14,34,987.74
2020,11,17,14,35,987.71
2020,11,17,14,36,987.71
2020,11,17,14,37,987.67
2020,11,17,14,38,987.71
2020,11,17,14,39,987.67
2020,11,17,14,40,987.71
2020,11,17,14,41,987.78
2020,11,17,14,42,987.74
2020,11,17,14,43,987.78
2020,11,17,14,44,987.78
2020,11,17,14,45,987.81
2020,11,17,14,46,987.91
2020,11,17,14,47,987.95
2020,11,17,14,48,988.01
2020,11,17,14,49,988.01
2020,11,17,14,50,988.05
2020,11,17,14,51,988.11
2020,11,17,14,52,988.15
2020,11,17,14,53,988.11
2020,11,17,14,54,988.15
2020,11,17,14,55,988.15
2020,11,17,14,56,988.18
2020,11,17,14,57,988.18
2020,11,17,14,58,988.18
2020,11,17,14,59,988.18
2020,11,17,15,00,988.22
2020,11,17,15,01,988.18
2020,11,17,15,02,988.22
2020,11,17,15,03,988.22
2020,11,17,15,04,988.22
2020,11,17,15,05,988.25
2020,11,17,15,06,988.28
2020,11,17,15,07,988.28
2020,11,17,15,08,988.28
2020,11,17,15,09,988.25
2020,11,17,15,10,988.25
2020,11,17,15,11,988.18
2020,11,17,15,12,988.22
2020,11,17,15,13,988.18
2020,11,17,15,14,988.22
2020,11,17,15,15,988.25
2020,11,17,15,16,988.25
2020,11,17,15,17,988.25
2020,11,17,15,18,988.28
2020,11,17,15,19,988.28
2020,11,17,15,20,988.28
2020,11,17,15,21,988.32
2020,11,17,15,22,988.32
2020,11,17,15,23,988.28
2020,11,17,15,24,988.32
2020,11,17,15,25,988.32
2020,11,17,15,26,988.39
2020,11,17,15,27,988.39
2020,11,17,15,28,988.35
2020,11,17,15,29,988.35
2020,11,17,15,30,988.35
2020,11,17,15,31,988.39
2020,11,17,15,32,988.39
2020,11,17,15,33,988.42
2020,11,17,15,34,988.42
2020,11,17,15,35,988.45
2020,11,17,15,36,988.45
2020,11,17,15,37,988.42
2020,11,17,15,38,988.42
2020,11,17,15,39,988.45
2020,11,17,15,40,988.52
2020,11,17,15,41,988.49
2020,11,17,15,42,988.49
2020,11,17,15,43,988.52
2020,11,17,15,44,988.55
2020,11,17,15,45,988.55
2020,11,17,15,46,988.59
2020,11,17,15,47,988.62
2020,11,17,15,48,988.59
2020,11,17,15,49,988.66
2020,11,17,15,50,988.72
2020,11,17,15,51,988.79
2020,11,17,15,52,988.79
2020,11,17,15,53,988.76
2020,11,17,15,54,988.79
2020,11,17,15,55,988.83
2020,11,17,15,56,988.86
2020,11,17,15,57,988.83
2020,11,17,15,58,988.86
2020,11,17,15,59,988.93
2020,11,17,16,00,988.96
2020,11,17,16,01,988.93
2020,11,17,16,02,988.86
2020,11,17,16,03,988.83
2020,11,17,16,04,988.79
2020,11,17,16,05,988.86
2020,11,17,16,06,988.89
2020,11,17,16,07,988.96
2020,11,17,16,08,989.00
2020,11,17,16,09,989.00
2020,11,17,16,10,989.06
2020,11,17,16,11,989.00
2020,11,17,16,12,989.06
2020,11,17,16,13,989.03
2020,11,17,16,14,989.12
2020,11,17,16,15,989.13
2020,11,17,16,16,989.06
2020,11,17,16,17,989.10
2020,11,17,16,18,989.10
2020,11,17,16,19,989.13
2020,11,17,16,20,989.20
2020,11,17,16,21,989.20
2020,11,17,16,22,989.10
2020,11,17,16,23,989.10
2020,11,17,16,24,989.13
2020,11,17,16,25,989.16
2020,11,17,16,26,989.20
2020,11,17,16,27,989.27
2020,11,17,16,28,989.20
2020,11,17,16,29,989.20
2020,11,17,16,30,989.16
2020,11,17,16,31,989.16
2020,11,17,16,32,989.16
2020,11,17,16,33,989.16
2020,11,17,16,34,989.23
2020,11,17,16,35,989.27
2020,11,17,16,36,989.27